Location: ???????
(55.3754°N, 39.3545°E)
Time: 11:42:12
(UTC+00:00)

Meteor 1-22 - Pass Details

Date: 14 April 2026
Orbit: 795 x 904 km, 81.3° (Epoch: 10 May)

Event Time Altitude Azimuth Distance (km) Brightness Sun altitude
Rises 22:15:18 0° 344° (NNW) 3,357 8.8 -24.0°
Reaches altitude 10° 22:17:43 10° 343° (NNW) 2,408 7.8 -23.9°
Maximum altitude 22:23:07 71° 260° (W) 848 4.5 -23.7°
Enters shadow 22:23:52 62° 209° (SSW) 903 4.5 -23.7°
